Location: Curtidor
(10.3472°N, 67.2917°W)
Time: 03:52:15
(UTC+00:00)

USA 234 - Pass Details

Date: 13 June 2024
Orbit: 1100 x 1107 km, 123.0° (Epoch: 08 July)

Event Time Altitude Azimuth Distance (km) Brightness Sun altitude
Rises 23:16:54 0° 37° (NE) 3,904 6.0 -6.6°
Reaches altitude 10° 23:19:22 10° 37° (NE) 2,947 5.4 -7.1°
Maximum altitude 23:25:53 88° 128° (SE) 1,101 3.3 -8.6°
Drops below altitude 10° 23:32:25 10° 216° (SW) 2,949 5.7 -10.0°
Sets 23:34:53 0° 217° (SW) 3,907 6.3 -10.6°
